#timestamp,LO_Frequency,Hit,StdDev 
1455634815.4,286047013.3,N
1455634835.2,286047016.1,N
1455634855.0,286047019.2,N
1455634855.9,286047019.2,N
1455634875.7,286047023.0,N
1455634895.6,286047027.8,N
1455634915.4,286047039.4,Y
1455634935.2,286047042.1,P
1455634955.1,286047048.4,N
1455634956.0,286047048.4,N
1455634975.8,286047056.9,Y
1455634995.7,286047029.0,P
1455635015.5,286047037.3,P
1455635035.3,286047040.7,P
1455635055.2,286047044.4,Y
1455635075.9,286047014.9,P
1455635095.7,286047016.2,N
1455635115.5,286047018.3,N
1455635135.4,286047017.4,N
1455635155.2,286047023.3,Y
1455635175.0,286047007.3,P
1455635176.0,286047007.3,N
1455635195.8,286047006.6,N
1455635215.6,286047009.1,N
1455635235.4,286047007.6,N
1455635255.3,286047005.4,N
1455635275.1,286047004.3,N
1455635295.8,286047004.5,N
1455635315.7,286047007.7,N
1455635335.5,286047009.6,N
1455635355.3,286047009.7,N
1455635375.2,286047009.9,N
1455635395.9,286047009.3,N
1455635415.7,286047008.7,N
1455635435.6,286047004.5,N
1455635455.4,286047006.9,N
1455635475.2,286047005.6,N
1455635495.0,286047003.7,N
1455635496.0,286047003.7,N
1455635515.8,286047001.3,N
1455635535.6,286046999.1,N
1455635555.4,286046998.0,N
1455635575.3,286046994.9,N
1455635595.1,286046992.4,N
1455635615.8,286046989.9,N
1455635635.7,286046984.1,N
1455635655.5,286046983.5,N
1455635675.3,286046981.2,N
1455635695.2,286046984.4,N
1455635715.9,286046983.5,N
1455635735.7,286046978.9,N
1455635755.6,286046975.8,N
1455635775.4,286046977.6,N
1455635795.2,286046976.3,N
1455635815.0,286046972.2,N
1455635815.9,286046972.2,N
1455635835.8,286046970.4,N
1455635855.6,286046972.3,N
1455635875.4,286046970.3,N
1455635895.3,286046968.8,N
1455635915.1,286046968.8,N
1455635935.8,286046964.8,N
1455635955.7,286046963.0,N
1455635975.5,286046963.1,N
1455635995.3,286046962.4,N
1455636015.2,286046958.6,N
1455636035.9,286046959.5,N
1455636055.7,286046958.1,Y
1455636075.6,286046979.5,P
1455636095.4,286046980.0,P
1455636115.2,286046983.1,P
1455636135.1,286046980.6,Y
1455636136.0,286046980.6,P
1455636155.8,286046999.7,P
1455636175.6,286047000.9,N
1455636195.5,286046998.8,N
1455636215.3,286046997.5,N
1455636235.1,286046994.4,N
1455636255.9,286046993.5,N
1455636275.7,286046995.6,N
1455636295.5,286046992.0,N
1455636315.3,286046992.8,N
1455636335.2,286046987.0,N
1455636355.9,286046988.0,N
1455636375.7,286046990.6,N
1455636395.6,286046992.2,N
1455636415.4,286046990.4,N
1455636435.2,286046988.8,N
1455636455.1,286046988.7,N
1455636456.0,286046988.7,N
1455636475.8,286046987.2,N
1455636495.6,286046987.8,N
1455636515.5,286046985.8,N
1455636535.3,286046985.5,N
1455636555.1,286046985.9,N
1455636575.9,286046985.0,N
1455636595.7,286046984.3,N
1455636615.5,286046984.2,N
1455636635.4,286046982.3,Y
1455636655.2,286046988.5,P
1455636675.0,286046989.1,P
1455636675.9,286046989.1,P
1455636695.8,286046988.2,Y
1455636715.6,286046994.9,P
1455636735.4,286046995.1,N
1455636755.2,286046999.5,N
1455636775.1,286046998.5,N
1455636776.0,286046998.5,N
1455636795.8,286046996.5,N
1455636815.6,286047000.8,N
1455636835.5,286047001.7,N
1455636855.3,286047006.0,N
1455636875.1,286047005.0,N
1455636895.9,286047004.7,N
1455636915.7,286047009.1,N
1455636935.5,286047011.8,N
1455636955.4,286047012.6,N
1455636975.2,286047013.5,N
1455636995.0,286047014.0,N
1455636995.9,286047014.0,N
1455637015.8,286047011.9,N
1455637035.6,286047012.6,N
1455637055.4,286047015.4,N
1455637075.3,286047013.1,N
1455637095.1,286047013.4,N
1455637096.0,286047013.4,N
1455637115.8,286047012.5,N
1455637135.6,286047015.8,N
1455637155.5,286047014.1,N
1455637175.3,286047015.0,N
1455637195.1,286047018.8,N
1455637215.9,286047016.4,N
1455637235.7,286047018.4,N
1455637255.5,286047021.4,N
1455637275.4,286047023.4,Y
1455637295.2,286047013.3,P
1455637315.0,286047013.0,P
1455637315.9,286047013.0,P
1455637335.8,286047011.1,Y
1455637355.6,286047002.6,P
1455637375.4,286047000.4,N
1455637395.3,286046996.9,N
1455637415.1,286046999.5,N
1455637435.8,286046996.9,N
1455637455.7,286046996.8,N
1455637475.5,286046994.9,N
1455637495.3,286046999.4,N
1455637515.2,286047000.3,N
1455637535.9,286047002.8,N
1455637555.7,286046999.1,N
1455637575.6,286046997.7,N
1455637595.4,286046995.7,N
1455637615.2,286046993.7,N
1455637635.0,286046994.0,N
1455637636.0,286046994.0,N
1455637655.8,286046994.6,N
1455637675.6,286046993.4,N
1455637695.4,286046997.6,N
1455637715.3,286046996.8,N
1455637735.1,286046996.2,N
1455637755.8,286046993.5,N
1455637775.7,286046996.1,N
1455637795.5,286046993.8,N
1455637815.3,286046993.9,N
1455637835.2,286046993.4,N
1455637855.9,286046994.3,N
1455637875.7,286046994.8,N
1455637895.6,286046991.2,N
1455637915.4,286046991.4,N
1455637935.2,286046990.3,Y
1455637955.1,286046996.4,P
1455637956.0,286046996.4,P
1455637975.8,286046992.2,P
1455637995.6,286046992.9,Y
1455638015.5,286046994.5,P
1455638035.3,286046994.5,P
1455638055.1,286046994.0,P
1455638075.9,286046992.6,Y
1455638095.7,286046997.8,P
1455638115.5,286046994.6,P
1455638135.4,286046994.1,P
1455638155.2,286046994.1,Y
1455638175.0,286046996.7,P
1455638175.9,286046996.7,P
1455638195.8,286046995.5,P
1455638215.6,286046996.5,Y
1455638235.4,286047004.2,P
1455638255.3,286047000.0,N
1455638275.1,286047003.9,N
1455638276.0,286047003.9,N
1455638295.8,286047005.4,N
1455638315.7,286046999.7,N
1455638335.5,286046999.9,N
1455638355.3,286047005.6,N
1455638375.1,286047007.0,N
1455638395.9,286047009.7,N
1455634815.1,286047000.4,N
1455634816.0,286047000.4,N
1455634835.8,286047002.5,N
1455634855.6,286047004.2,N
1455634875.5,286047000.1,N
1455634895.3,286047000.5,N
1455634915.1,286047001.8,N
1455634935.9,286047004.1,N
1455634955.7,286047002.4,N
1455634975.5,286046999.9,N
1455634995.3,286046998.9,N
1455635015.2,286047000.5,N
1455635035.0,286047000.8,N
1455635035.9,286047000.8,N
1455635055.7,286047001.2,N
1455635075.6,286046999.4,N
1455635095.4,286046997.9,N
1455635115.2,286046995.4,N
1455635135.1,286046996.3,N
1455635136.0,286046996.3,N
1455635155.8,286046992.6,Y
1455635175.6,286046990.4,P
1455635195.5,286046990.1,N
1455635215.3,286046991.9,N
1455635235.1,286046992.2,N
1455635255.9,286046991.1,N
1455635275.7,286046991.2,N
1455635295.5,286046991.3,N
1455635315.4,286046993.0,N
1455635335.2,286046989.3,Y
1455635355.0,286046994.1,P
1455635355.9,286046994.1,P
1455635375.8,286046994.8,P
1455635395.6,286046992.6,Y
1455635415.4,286046998.9,P
1455635435.3,286046997.5,N
1455635455.1,286046995.9,N
1455635456.0,286046995.9,N
1455635475.8,286046991.8,Y
1455635495.7,286046997.9,P
1455635515.5,286046997.3,P
1455635535.3,286046994.2,P
1455635555.2,286046992.9,Y
1455635575.0,286046991.9,P
1455635575.9,286046991.9,P
1455635595.7,286046991.1,P
1455635615.6,286046993.2,Y
1455635635.4,286046997.0,P
1455635655.2,286046996.0,N
1455635675.1,286046996.0,N
1455635676.0,286046996.0,N
1455635695.8,286046998.0,N
1455635715.6,286046997.3,N
1455635735.5,286046994.1,Y
1455635755.3,286046994.9,P
1455635775.1,286046999.2,N
1455635795.9,286046995.6,N
1455635815.7,286046994.1,Y
1455635835.5,286046997.4,P
1455635855.4,286046997.8,P
1455635875.2,286046996.7,P
1455635895.0,286046998.7,N
1455635895.9,286046998.7,N
1455635915.8,286046998.4,N
1455635935.6,286047000.9,N
1455635955.4,286047005.3,Y
1455635975.3,286047008.4,P
1455635995.1,286047006.8,N
1455635996.0,286047006.8,N
1455636015.8,286047007.3,N
1455636035.7,286047007.0,N
1455636055.5,286047008.2,N
1455636075.3,286047010.6,Y
1455636095.2,286047003.8,P
1455636115.9,286047003.4,N
1455636135.7,286047003.7,P
1455636155.6,286047005.2,Y
1455636175.4,286047002.5,P
1455636195.2,286047009.1,P
1455636215.1,286047012.7,P
1455636216.0,286047012.7,Y
1455636235.8,286047010.0,P
1455636255.6,286047009.8,P
1455636275.5,286047011.1,P
1455636295.3,286047015.1,Y
1455636315.1,286047003.2,P
1455636335.9,286047004.0,N
1455636355.7,286047004.9,N
1455636375.5,286047006.1,N
1455636395.4,286047006.6,N
1455636415.2,286047008.1,Y
1455636435.0,286046999.8,P
1455636435.9,286046999.8,N
1455636455.8,286047001.2,N
1455636475.6,286047001.2,N
1455636495.4,286046998.4,N
1455636515.2,286046996.8,N
1455636535.1,286046997.4,N
1455636536.0,286046997.4,N
1455636555.8,286046996.4,N
1455636575.6,286046993.9,N
1455636595.5,286046991.3,N
1455636615.3,286046989.6,N
1455636635.1,286046986.1,Y
1455636655.9,286046988.1,P
1455636675.7,286046987.9,N
1455636695.5,286046992.7,N
1455636715.4,286046992.8,N
1455636735.2,286046993.1,N
1455636755.0,286046992.5,N
1455636755.9,286046992.5,N
1455636775.8,286046987.6,Y
1455636795.6,286046997.6,P
1455636815.4,286046999.3,N
1455636835.3,286046996.8,N
1455636855.1,286046996.0,N
1455636856.0,286046996.0,N
1455636875.8,286046996.6,N
1455636895.7,286046997.3,N
1455636915.5,286046995.1,N
1455636935.3,286046995.1,N
1455636955.2,286046995.6,N
1455636975.9,286046996.1,N
1455636995.7,286046996.1,N
1455637015.6,286046995.1,Y
1455637035.4,286047000.6,P
1455637055.2,286047002.3,N
1455637075.0,286047003.1,N
1455637076.0,286047003.1,N
1455637095.8,286047005.6,N
1455637115.6,286047001.4,N
1455637135.4,286046998.1,N
1455637155.3,286047000.0,N
1455637175.1,286046998.6,N
1455637195.8,286046996.7,N
1455637215.7,286046998.8,N
1455637235.5,286047001.4,N
1455637255.3,286047005.5,N
1455637275.2,286047004.6,N
1455637295.9,286047008.7,N
1455637315.7,286047008.6,N
1455637335.6,286047006.5,N
1455637355.4,286047009.2,N
1455637375.2,286047010.1,N
1455637395.0,286047009.6,N
1455637396.0,286047009.6,N
1455637415.8,286047012.9,N
1455637435.6,286047014.0,N
1455637455.4,286047011.2,N
1455637475.3,286047013.3,N
1455637495.1,286047012.9,N
1455637515.8,286047012.6,N
1455637535.7,286047011.5,N
1455637555.5,286047013.4,N
1455637575.3,286047011.8,N
1455637595.2,286047011.4,N
1455637615.9,286047013.5,N
1455637635.7,286047013.2,N
1455637655.6,286047010.8,N
1455637675.4,286047009.9,N
1455637695.2,286047007.9,N
1455637715.0,286047007.7,N
1455637716.0,286047007.7,N
1455637735.8,286047008.1,N
1455637755.6,286047009.1,N
1455637775.4,286047008.6,N
1455637795.3,286047007.3,N
1455637815.1,286047007.0,N
1455637835.8,286047008.2,Y
1455637855.7,286046999.2,P
1455637875.5,286046999.3,N
1455637895.3,286046999.9,N
1455637915.2,286046998.5,N
1455637935.9,286046998.6,N
1455637955.7,286046998.6,N
1455637975.6,286046998.1,N
1455637995.4,286046998.7,N
1455638015.2,286047000.2,N
1455638035.1,286047004.4,N
1455638036.0,286047004.4,N
1455638055.8,286047006.0,N
1455638075.6,286047005.9,N
1455638095.5,286047003.4,N
1455638115.3,286047001.7,N
1455638135.1,286047001.4,N
1455638155.8,286047001.6,N
1455638175.7,286047002.7,N
1455638195.5,286046999.8,N
1455638215.3,286047000.6,N
1455638235.2,286047000.9,N
1455638255.9,286046998.1,N
1455638275.7,286046999.6,N
1455638295.6,286046995.9,N
1455638315.4,286046997.8,N
1455638335.2,286046996.3,N
1455638355.1,286046994.2,N
1455638356.0,286046994.2,N
1455638375.8,286046997.6,N
1455638395.6,286046993.9,N
